Regional Weather Roundup
Issued by NWS

Home | Current Version | Previous Version | Text Only | Print | Product List | Glossary On
Versions: 1 2 3 4 5 6 7 8 9 10 11 12 13 14 15 16 17 18 19 20 21 22 23 24 25 26 27
000
ASUS42 KTBW 100216
RWRFL
FLORIDA REGIONAL WEATHER ROUNDUP
NATIONAL WEATHER SERVICE TAMPA BAY RUSKIN FL
900 PM EST FRI DEC 09 2016

NOTE: "FAIR" INDICATES FEW OR NO CLOUDS BELOW 12,000 FEET WITH NO
SIGNIFICANT WEATHER AND/OR OBSTRUCTIONS TO VISIBILITY.

FLZ001>010-012>015-112-114-115-100300-
PANHANDLE FLORIDA

CITY           SKY/WX    TMP DP  RH WIND       PRES   REMARKS
PENSACOLA      CLEAR     42  22  44 N8        30.47S WCI  37
PENSACOLA NAS  PTCLDY    41  22  46 N8        30.47S WCI  36
MILTON NAS     PTCLDY    37  22  54 N6        30.47F WCI  32
CRESTVIEW      CLEAR     38  22  52 N5        30.48S WCI  34
DUKE FIELD     PTCLDY    35  25  66 N5        30.46R WCI  31
VALPARAISO     PTCLDY    40  21  47 N7        30.47R WCI  35
MARY ESTHER    CLEAR     38  23  54 N8        30.45R WCI  32
TRI COUNTY     FAIR      41  24  51 N6        30.47R WCI  37
PANAMA CITY    FAIR      40  25  55 NW6       30.45R WCI  36
TYNDALL AFB    CLEAR     44  24  45 N7        30.45R WCI  40
APALACHICOLA   CLEAR     44  22  41 NE6       30.43R WCI  41

STATION/POSITION SKY/WX   TEMP    WIND        PRES    WAVE   SWELL
                          AIR SEA DIR/SP/G            HT/PER HT/PER
                          (F)     (DEG/KT/KT) (MB)    (FT/S) (FT/S)
30.1N   87.6W              50 69   20/ 17/ 21 1031.5    3/ 3
29.2N   88.2W              55 74   30/ 19/ 23 1031.0R   5/ 6
28.8N   86.0W              58 74              1028.6    5/ 6
PANAMA CITY BEAC           42 65  360/  5/  7 1031.5R
TOWER C                    52      20/ 19/ 21 1030.1R
28.5N   84.5W              60 73   40/ 17/ 23 1027.7    5/ 5

$$
FLZ011-016>038-118-127-128-134-139-239-100300-
NORTH FLORIDA

CITY           SKY/WX    TMP DP  RH WIND       PRES   REMARKS
MARIANNA       CLEAR     38  27  64 CALM      30.45R
TALLAHASSEE    CLEAR     37  26  64 NW3       30.44R
PERRY          CLEAR     44  20  37 N6        30.43R WCI  41
CROSS CITY     PTCLDY    41  30  65 N5        30.41R WCI  38
LAKE CITY      FAIR      39  30  70 N5        30.42R WCI  36
GAINESVILLE    CLOUDY    44  32  62 N6        30.40R WCI  41
WILLISTON      CLEAR     48  32  53 N3        30.40R
PALATKA        FAIR      46  36  66 N6        30.40S WCI  43
MAYPORT NAS    CLEAR     52  33  48 NE14      30.41R
JACKSONVILLE   PTCLDY    41  35  79 N8        30.41R WCI  36
JAX NAS        MOCLDY    52  34  50 NE10      30.42R
FERNANDINA BEA FAIR      50  36  57 N7        30.40S
ST AUGUSTINE   CLOUDY    53  36  52 N12       30.40S
PALM COAST     FAIR      46  39  76 MISG      30.38R

STATION/POSITION SKY/WX   TEMP    WIND        PRES    WAVE   SWELL
                          AIR SEA DIR/SP/G            HT/PER HT/PER
                          (F)     (DEG/KT/KT) (MB)    (FT/S) (FT/S)
SHELL POINT                46     360/  7/ 10 1028.8
KEATON BEACH               46      10/  7/ 11 1029.2R
CEDAR KEY                  51      20/  7/ 10 1028.8R
FERNANDINA                 51 64  340/  8/ 13 1029.8R
30.7N   81.3W                 64                N/A     3/ 6
MAYPORT                    53 64   40/ 12/ 16 1029.5R
31.4N   80.9W              52 62   10/ 14/ 17 1029.6    3/ 6   2/ 7
ST AUGUSTINE               55 65   20/ 18/ 21 1029.4R

$$
FLZ040-043>046-052-053-057-058-063-144-100300-
INTERIOR CENTRAL FLORIDA

CITY           SKY/WX    TMP DP  RH WIND       PRES   REMARKS
OCALA          CLOUDY    48  32  53 NE6       30.38R
THE VILLAGES     N/A     52  45  76 MISG      30.27S
LEESBURG       PTCLDY    51  39  63 N9        30.37R
SANFORD        CLOUDY    53  43  68 N13       30.34R
ORLANDO EXEC   CLOUDY    54  42  64 N10       30.34R
ORLANDO INTL   MOCLDY    54  43  66 N10       30.34R
KISSIMMEE      CLOUDY    55  44  66 N10       30.35
WINTER HAVEN   CLOUDY    54  42  64 NE15G22   30.34R
LAKELAND       CLEAR     54  45  71 NE9       30.34R
BARTOW         FAIR      55  43  62 N12G17    30.33S
OKEECHOBEE     CLOUDY    55  48  76 N6        30.29R

$$
FLZ041-047-054-059-064-141-147-100300-
EAST CENTRAL FLORIDA

CITY           SKY/WX    TMP DP  RH WIND       PRES   REMARKS
DAYTONA BEACH  MOCLDY    55  43  63 N7        30.35R
DELAND         PTCLDY    50  41  71 N10       30.35S
NEW SMYRNA BEA PTCLDY    59  46  63 N22G29    30.32R
JFK SPACE CTR  MOCLDY    61  49  65 N10       30.30R
TITUSVILLE     PTCLDY    52  50  93 NW9       30.33R
CAPE CANAVERAL CLEAR     62  51  65 N12       30.29R
PATRICK AFB    PTCLDY    63  51  65 N17       30.29R
MELBOURNE      MOCLDY    60  51  72 N10       30.29R
VERO BEACH     PTCLDY    65  56  72 N15G21    30.27R
FT PIERCE      MOCLDY    65  56  72 N8G20     30.26R
STUART         CLOUDY    72  61  68 NW13G21   30.25S

STATION/POSITION SKY/WX   TEMP    WIND        PRES    WAVE   SWELL
                          AIR SEA DIR/SP/G            HT/PER HT/PER
                          (F)     (DEG/KT/KT) (MB)    (FT/S) (FT/S)
TRIDENT PIER               62 71  350/  8/ 13 1026.0R
28.4N   80.5W                 71                N/A     3/ 6

$$
FLZ050-056-061-142-242-148-248-149-249-151-251-155-255-
160-260-100300-
WEST CENTRAL FLORIDA

CITY           SKY/WX    TMP DP  RH WIND       PRES   REMARKS
CRYSTAL RIVER  FAIR      50  32  50 NE7       30.38R
INVERNESS      FAIR      50  37  62 NE7       30.38R
BROOKSVILLE    CLEAR     52  36  54 MISG        N/A
CLEARWATER AIR FAIR      54  36  50 NE8       30.34R
ST PETE CLEARW CLOUDY    57  40  52 NE12      30.34R
TAMPA INTL     CLOUDY    56  40  55 NE8       30.35R
TAMPA EXEC     PTCLDY    55  43  62 NE3       30.35R
PLANT CITY     MOCLDY    55  46  71 NE5       30.36R
MACDILL AFB    MOCLDY    55  42  60 NE14      30.33R
PETER O KNIGHT PTCLDY    57  45  62 NE13      30.34R
ST PETERSBURG  CLOUDY    58  46  64 NE17      30.32R
SARASOTA       CLOUDY    56  40  55 NE8       30.31R
VENICE         FAIR      57  45  62 NE10      30.31R

STATION/POSITION SKY/WX   TEMP    WIND        PRES    WAVE   SWELL
                          AIR SEA DIR/SP/G            HT/PER HT/PER
                          (F)     (DEG/KT/KT) (MB)    (FT/S) (FT/S)
CLEARWATER BEACH           57 66   40/ 11/ 15 1027.6R
MIDDLE TAMPA BAY           59      50/ 18/ 23 1027.4R
VENICE                     58 69   30/  9/ 13 1025.5R

$$
FLZ066-069-070-075>078-162-262-165-265-100300-
SOUTHWEST FLORIDA AND KEYS

CITY           SKY/WX    TMP DP  RH WIND       PRES   REMARKS
PUNTA GORDA    CLOUDY    57  47  69 N10       30.31R
FT MYERS       CLOUDY    60  50  69 NE13G21   30.27S
SOUTHWEST INTL CLOUDY    59  50  72 N9        30.28R
NAPLES         MOCLDY    61  51  70 NE14G22   30.24S
MARCO ISLAND   MOCLDY    61  52  72 NE20G26   30.25S
MARATHON       PTCLDY    72  65  78 N16       30.17S
KEY WEST NAS   PTCLDY    71  64  78 NE20G28   30.18R
KEY WEST INTL  CLEAR     72  66  81 N15G22    30.19R

STATION/POSITION SKY/WX   TEMP    WIND        PRES    WAVE   SWELL
                          AIR SEA DIR/SP/G            HT/PER HT/PER
                          (F)     (DEG/KT/KT) (MB)    (FT/S) (FT/S)
NAPLES                        72              1024.1F
26.0N   85.6W              67 76   40/ 21/ 27 1025.3R   8/ 8
DRY TORTUGAS               71      40/ 24/ 26 1022.2R
SAND KEY                   73      50/ 23/ 26 1022.2R
LONG KEY                   72 77   30/ 24/ 27 1021.8R
MOLASSES REEF              77 78   70/ 19/ 21 1021.4R

$$
FLZ067-068-071>074-168-172>174-100300-
SOUTHEAST FLORIDA

CITY           SKY/WX    TMP DP  RH WIND       PRES   REMARKS
W PALM BEACH   CLOUDY    67  58  72 N14       30.22R
BOCA RATON     CLOUDY    68  59  73 MISG      30.22R
FT LAUDER-EXEC CLOUDY    67  58  72 N9        30.21S
FT LAUDERDALE  CLOUDY    67  60  78 N10       30.20R
POMPANO BEACH  CLOUDY    68  60  75 N12       30.22R
PEMBROKE PINES CLOUDY    67  59  75 N12       30.23R
OPA LOCKA      CLOUDY    68  59  73 N10       30.22R
MIAMI          CLOUDY    67  60  78 N8        30.22R
WEST KENDALL   CLOUDY    67  60  78 N15       30.22R
HOMESTEAD      CLOUDY    68  67  97 N13       30.20R

STATION/POSITION SKY/WX   TEMP    WIND        PRES    WAVE   SWELL
                          AIR SEA DIR/SP/G            HT/PER HT/PER
                          (F)     (DEG/KT/KT) (MB)    (FT/S) (FT/S)
PORT EVERGLADES            68     330/  9/ 14 1022.5R
VIRGINIA KEY               69 83  350/  7/ 13 1023.0S
LAKE WORTH                 67 77  340/ 11/ 17 1022.9R
FOWEY ROCKS                71 78  350/ 20/ 22 1023.0R

$$





USA.gov is the U.S. government's official web portal to all federal, state and local government web resources and services.